Regional Weather Roundup
Issued by NWS

Home | Current Version | Previous Version | Text Only | Print | Product List | Glossary On
Versions: 1 2 3 4 5 6 7 8 9 10 11 12 13 14 15 16 17 18 19 20 21 22 23 24 25 26 27 28 29 30 31 32 33 34 35 36 37 38 39 40 41 42 43 44 45 46 47 48 49 50
862
ASUS43 KMKX 200011
RWRWI

WISCONSIN REGIONAL WEATHER ROUNDUP
NATIONAL WEATHER SERVICE MILWAUKEE/SULLIVAN WI
700 PM CDT TUE SEP 19 2017

NOTE: "FAIR" INDICATES FEW OR NO CLOUDS BELOW 12,000 FEET WITH NO
SIGNIFICANT WEATHER AND/OR OBSTRUCTIONS TO VISIBILITY.

WIZ001-002-006>008-014>016-023>028-200100-
NORTHWEST WISCONSIN

CITY           SKY/WX    TMP DP  RH WIND       PRES   REMARKS
SUPERIOR ARPT  CLOUDY    60  58  94 NE13G18   29.81S
6HR MIN TEMP:  60; 6HR MAX TEMP:  66;

ASHLAND        CLOUDY    62  60  93 NE3       29.84F
6HR MIN TEMP:  62; 6HR MAX TEMP:  78;

HAYWARD        PTCLDY    70  58  65 CALM      29.83S
6HR MIN TEMP:  70; 6HR MAX TEMP:  76;

SIREN          CLOUDY    72  61  67 SE7       29.77F
6HR MIN TEMP:  72; 6HR MAX TEMP:  79;

CUMBERLAND     CLEAR     70  59  68 SE8       29.79F
RICE LAKE      PTCLDY    72  60  66 SE12      29.81F
6HR MIN TEMP:  72; 6HR MAX TEMP:  78;

CHETEK         MOCLDY    72  62  71 SE8       29.80F
6HR MIN TEMP:  72; 6HR MAX TEMP:  77;

LADYSMITH      CLEAR     70  56  61 E6        29.86S
6HR MIN TEMP:  70; 6HR MAX TEMP:  78;

EAU CLAIRE     PTCLDY    74  61  63 SE12      29.79F
6HR MIN TEMP:  74; 6HR MAX TEMP:  79;

MENOMONIE      CLEAR     72  63  73 E8        29.78F
6HR MIN TEMP:  72; 6HR MAX TEMP:  78;

NEW RICHMOND   CLOUDY    71  61  70 SE5       29.75F
6HR MIN TEMP:  71; 6HR MAX TEMP:  78;

OSCEOLA        CLOUDY    73  62  68 SE10      29.76F
6HR MIN TEMP:  73; 6HR MAX TEMP:  79;

$$

WIZ003>005-009-010-017-018-200100-
NORTH CENTRAL WISCONSIN

CITY           SKY/WX    TMP DP  RH WIND       PRES   REMARKS
MANITOWISH WTR CLEAR     67  58  75 SE7       29.90S
6HR MIN TEMP:  67; 6HR MAX TEMP:  73;

ARBOR VITAE    CLEAR     69  59  70 SE9       29.91S
6HR MIN TEMP:  69; 6HR MAX TEMP:  77;

WOODRUFF       CLEAR     69  59  70 SE9       29.91S
6HR MIN TEMP:  69; 6HR MAX TEMP:  77;

RHINELANDER    CLEAR     66  58  75 SE7       29.93S
6HR MIN TEMP:  66; 6HR MAX TEMP:  76;

EAGLE RIVER    CLEAR     66  54  66 SE3       29.93R
6HR MIN TEMP:  66; 6HR MAX TEMP:  75;

LAND O LAKES   CLEAR     66  57  73 SE7       29.94S
6HR MIN TEMP:  66; 6HR MAX TEMP:  76;

PHILLIPS       CLOUDY    69  57  66 SE6       29.87S
6HR MIN TEMP:  69; 6HR MAX TEMP:  75;

TOMAHAWK         N/A     66  57  72 SE5       29.91S
6HR MIN TEMP:  66; 6HR MAX TEMP:  76;

MEDFORD        CLEAR     67  56  68 SE9       29.88S
6HR MIN TEMP:  67; 6HR MAX TEMP:  74;

MERRILL        CLEAR     68  59  73 SE9       29.91F
$$

WIZ029-030-035-036-043>047-200100-
CENTRAL WISCONSIN

CITY           SKY/WX    TMP DP  RH WIND       PRES   REMARKS
WAUSAU         CLEAR     68  59  73 SE9       29.89S
6HR MIN TEMP:  68; 6HR MAX TEMP:  76;

MOSINEE        PTCLDY    68  59  73 E5        29.91S
MARSHFIELD     CLEAR     69  55  60 E6        29.87S
6HR MIN TEMP:  69; 6HR MAX TEMP:  78;

STEVENS POINT  CLEAR     66  58  75 E6        29.90S
6HR MIN TEMP:  66; 6HR MAX TEMP:  75; 6HR PCP:  0.01;

WAUPACA        CLEAR     71  59  65 E7        29.91S
6HR MIN TEMP:  71; 6HR MAX TEMP:  80;

WAUTOMA        CLEAR     71  61  70 E10       29.89S
6HR MIN TEMP:  71; 6HR MAX TEMP:  79;

WISC RAPIDS    CLEAR     72  60  66 SE9       29.89S
6HR MIN TEMP:  72; 6HR MAX TEMP:  80;

CAMP DOUGLAS   PTCLDY    72  59  64 E8        29.85F
$$

WIZ011>013-019>022-031-037>040-048>050-200100-
NORTHEAST WISCONSIN

CITY           SKY/WX    TMP DP  RH WIND       PRES   REMARKS
ANTIGO         CLEAR     63  58  85 SE8       29.94S
6HR MIN TEMP:  63; 6HR MAX TEMP:  73;

SHAWANO        CLEAR     68  57  69 E8        29.93R
6HR MIN TEMP:  68; 6HR MAX TEMP:  77;

OCONTO         CLEAR     65  55  69 E3        29.94S
6HR MIN TEMP:  65; 6HR MAX TEMP:  73;

STURGEON BAY   CLEAR     62  56  80 E5        29.96S
6HR MIN TEMP:  62; 6HR MAX TEMP:  72;

GREEN BAY      CLEAR     66  59  78 E7        29.93F
6HR MIN TEMP:  66; 6HR MAX TEMP:  77;

MANITOWOC      CLEAR     63  59  87 E6        29.94F
6HR MIN TEMP:  63; 6HR MAX TEMP:  69;

APPLETON       NOT AVBL
CLINTONVILLE   CLEAR     68  57  68 E5        29.91S
OSHKOSH        CLEAR     68  60  75 E9        29.91F
6HR MIN TEMP:  68; 6HR MAX TEMP:  75;

$$

WIZ032>034-041-042-053>061-200100-
SOUTHWEST WISCONSIN

CITY           SKY/WX    TMP DP  RH WIND       PRES   REMARKS
LA CROSSE      CLEAR     77  64  64 SE8       29.79F
6HR MIN TEMP:  77; 6HR MAX TEMP:  83;

SPARTA         CLEAR     73  62  68 SE6       29.84S
6HR MIN TEMP:  73; 6HR MAX TEMP:  80;

VIROQUA        CLEAR     72  64  75 SE8       29.84F
6HR MIN TEMP:  72; 6HR MAX TEMP:  79;

BOSCOBEL       CLEAR     78  62  57 VRB3      29.83F HX  80
6HR MIN TEMP:  78; 6HR MAX TEMP:  84;

PRAIRIE DU CHI CLEAR     76  60  56 SE9       29.81F
6HR MIN TEMP:  76; 6HR MAX TEMP:  83;

PLATTEVILLE    CLEAR     73  65  74 S7        29.86S
6HR MIN TEMP:  73; 6HR MAX TEMP:  82;

$$

WIZ056-057-062-063-064-067-068-200100-
SOUTH CENTRAL WISCONSIN

CITY           SKY/WX    TMP DP  RH WIND       PRES   REMARKS
REEDSBURG      CLEAR     73  60  63 E3        29.85F
6HR MIN TEMP:  73; 6HR MAX TEMP:  80;

BARABOO/DELLS  CLEAR     73  58  58 SE5       29.87S
6HR MIN TEMP:  73; 6HR MAX TEMP:  80;

LONE ROCK      CLEAR     75  64  68 SE6       29.84F
6HR MIN TEMP:  75; 6HR MAX TEMP:  81;

MINERAL POINT  CLEAR     73  64  73 SE6       29.87S
MADISON        PTCLDY    75  63  66 SE10      29.87F
6HR MIN TEMP:  75; 6HR MAX TEMP:  81;

MIDDLETON      CLEAR     76  62  62 SE7       29.88S
6HR MIN TEMP:  76; 6HR MAX TEMP:  82;

WATERTOWN      CLEAR     68  65  91 E10       29.90S
6HR MIN TEMP:  68; 6HR MAX TEMP:  80;

MONROE         CLEAR     73  61  64 SE8       29.88S
JANESVILLE     CLEAR     75  61  60 SE9       29.88S
$$

WIZ051-052-058>065-066-070>072-200100-
SOUTHEAST WISCONSIN

CITY           SKY/WX    TMP DP  RH WIND       PRES   REMARKS
MILWAUKEE      CLOUDY    67  64  90 E5        29.93S
6HR MIN TEMP:  67; 6HR MAX TEMP:  72;

WAUKESHA       CLOUDY    64  61  88 E9        29.94F
MILWAUKEE/TIMM CLOUDY    66  59  77 E5        29.94F HAZE
RACINE         CLOUDY    67  64  90 E7        29.94F FOG
6HR MIN TEMP:  67; 6HR MAX TEMP:  73;

BURLINGTON     CLEAR     66  64  90 E5        29.92F
6HR MIN TEMP:  66; 6HR MAX TEMP:  79;

KENOSHA        CLOUDY    67  63  87 E6        29.93S
6HR MIN TEMP:  67; 6HR MAX TEMP:  76;

FOND DU LAC    CLEAR     68  59  73 E12       29.91F
6HR MIN TEMP:  68; 6HR MAX TEMP:  79; 6HR PCP: TRACE;

SHEBOYGAN      CLEAR     63  61  93 E5        29.94S
6HR MIN TEMP:  63; 6HR MAX TEMP:  73;

WEST BEND        N/A     63  61  94 CALM      29.94S
JUNEAU         CLEAR     66  61  84 E9        29.92S
6HR MIN TEMP:  66; 6HR MAX TEMP:  78;

$$

LSZ147-162-200100-
LAKE SUPERIOR

STATION/POSITION TIME  TEMP    WIND        PRES    WAVE
                       AIR SEA DIR/SP/G            HT/PER
                 (UTC) (F)     (DEG/KT/KT) (MB)    (FT/S)
W MID LAKE BUOY  2250   58 55   60/ 16/ 16 1011.6F   2/ 3
DEVILS ISLAND    0000   59      80/ 13/ 14 1010.7S
SAXON HARBOR     2340   66     160/  2/  3 1010.2S
$$

LMZ867-665-643>646-200100-
LAKE MICHIGAN

STATION/POSITION TIME  TEMP    WIND        PRES    WAVE
                       AIR SEA DIR/SP/G            HT/PER
                 (UTC) (F)     (DEG/KT/KT) (MB)    (FT/S)
S GREEN BAY BUOY 0000   68 67  110/



USA.gov is the U.S. government's official web portal to all federal, state and local government web resources and services.